Location: Kermapucano
(48.0667°N, 3.3000°W)
Time: 20:38:52
(UTC+00:00)

SMAP - Pass Details

Date: 29 November 2020
Orbit: 681 x 683 km, 98.1° (Epoch: 27 January)

Event Time Altitude Azimuth Distance (km) Brightness Sun altitude
Rises 06:18:20 0° 17° (NNE) 3,060 6.4 -13.2°
Reaches altitude 10° 06:20:38 10° 22° (NNE) 2,139 5.7 -12.8°
Maximum altitude 06:25:13 55° 100° (E) 826 3.9 -12.1°
Drops below altitude 10° 06:29:47 10° 179° (S) 2,121 5.9 -11.4°
Sets 06:32:03 0° 183° (S) 3,031 6.6 -11.0°
